Flag for Brazil Weather past 2 weeks in Curitiba, Paraná, Brazil

Now
57 °F

Passing clouds.


Feels Like: 57 °F
Forecast: 58 / 66 °F
Wind: 5 mph from Southeast

Location: Curitiba Aeroporto

Current Time: Sep 1, 2014 at 11:29:12 PM

Latest Report: Sep 1, 2014 at 11:00 PM


Visibility: N/A

Pressure: 30.07 "Hg

Humidity: 94%

Dew point: 55 °F

Location of CuritibaLocation

Historic Weather in Curitiba — Graph

°F

Curitiba temperature yesterday

Maximum temperature yesterday: 59 °F (at 10:00 AM)
Minimum temperature yesterday: 50 °F (at 4:00 AM)
Average temperature yesterday: 55 °F

Past Weeks' High & Low Weather Summary

 TemperatureHumidityPressure
High82 °F (Aug 25, 12:00 PM)100% (Aug 17, 10:00 PM)30.33 "Hg (Aug 17, 10:00 PM)
Low41 °F (Aug 28, 1:00 AM)26% (Aug 25, 12:00 PM)29.95 "Hg (Aug 25, 2:00 PM)
Average59 °F78%30.13 "Hg
* Reported Aug 17 10:00 PM — Sep 1 10:00 PM, Curitiba, Weather by CustomWeather, © 2014

Note: Actual official high and low records may vary slightly from our data, if they occured in-between our weather recording intervals... More about our weather records

Advertising

Curitiba weather history for previous 24 hours

 ConditionsComfort  
Time TempWeatherWind HumidityBarometerVisibility
10:00 PM
Sep 1
57 °FPassing clouds.5 mph100%30.07 "HgN/A
9:00 PM59 °FPassing clouds.6 mph94%30.04 "HgN/A
8:00 PM61 °FPassing clouds.5 mph94%30.04 "HgN/A
7:00 PM68 °FPassing clouds.10 mph83%30.01 "HgN/A
6:00 PM73 °FPassing clouds.6 mph61%29.98 "HgN/A
5:00 PM75 °FPassing clouds.6 mph57%29.98 "HgN/A
4:00 PM81 °FPassing clouds.9 mph48%29.98 "HgN/A
3:00 PM81 °FPassing clouds.9 mph45%29.98 "HgN/A
2:00 PM75 °FSunny.9 mph54%29.98 "Hg10 mi
1:00 PM75 °FSunny.12 mph54%30.01 "Hg10 mi
12:00 PM73 °FSunny.10 mph53%30.04 "Hg10 mi
11:00 AM72 °FSunny.14 mph57%30.04 "Hg10 mi
10:00 AM68 °FSunny.8 mph69%30.04 "Hg10 mi
9:00 AM61 °FSunny.3 mph83%30.04 "Hg10 mi
8:00 AM55 °FSunny.5 mph100%30.01 "Hg10 mi
7:00 AM52 °FSunny.2 mph100%30.01 "Hg10 mi
6:00 AM52 °FPassing clouds.1 mph100%29.98 "HgN/A
5:00 AM54 °FPassing clouds.5 mph100%29.98 "HgN/A
4:00 AM54 °FClear.2 mph100%29.95 "Hg10 mi
3:00 AM54 °FClear.7 mph100%29.98 "Hg10 mi
2:00 AM54 °FClear.6 mph100%29.98 "Hg10 mi
1:00 AM54 °FClear.5 mph100%30.01 "Hg10 mi
12:00 AM55 °FClear.6 mph100%30.04 "Hg10 mi
11:00 PM
Aug 31
57 °FPassing clouds.5 mph88%30.04 "HgN/A
Weather by CustomWeather, © 2014

See weather overviewHow to use our weather pages